LAGEOS 1

Last updated on Mon Nov 03 2025 00:03:54 GMT+0000 (Coordinated Universal Time)

1 08820U 76039A 25306.23797373 .00000025 00000+0 00000+0 0 9995 2 08820 109.8400 101.6156 0044668 350.8574 155.9625 6.38664852898648
UTC large
Height (km)
Speed (km/s)
/
Latitude / Longitude
Inclination (degrees)
Orbital Period (minutes)
Azimuth
Elevation
Range (km)
Doppler Factor

Next 0 passes for location: London (51.5072 / 0.1276)

Sorry there are no passes over London.